Time,TemperatureF,DewpointF,PressureIn,WindDirection,WindDirectionDegrees,WindSpeedMPH,WindSpeedGustMPH,Humidity,HourlyPrecipIn,Conditions,Clouds,dailyrainin,SoftwareType,DateUTC
2013-08-06 00:02:00,63.4,59.5,29.95,ESE,122,1.0,1.0,87,0.00,,,0.00,Wunderground v.1.15,2013-08-06 07:02:00,
2013-08-06 00:07:00,63.4,59.5,29.95,ESE,122,0.0,1.0,87,0.00,,,0.00,Wunderground v.1.15,2013-08-06 07:07:00,
2013-08-06 00:12:00,63.3,59.4,29.95,ESE,122,0.0,0.0,87,0.00,,,0.00,Wunderground v.1.15,2013-08-06 07:12:00,
2013-08-06 00:22:00,63.1,59.2,29.95,ESE,122,0.0,0.0,87,0.00,,,0.00,Wunderground v.1.15,2013-08-06 07:22:00,
2013-08-06 00:27:00,63.1,59.2,29.95,SE,134,1.0,1.0,87,0.00,,,0.00,Wunderground v.1.15,2013-08-06 07:27:00,
2013-08-06 00:37:00,62.9,59.0,29.95,SE,134,1.0,1.0,87,0.00,,,0.00,Wunderground v.1.15,2013-08-06 07:37:00,
2013-08-06 00:42:00,62.8,58.9,29.95,SE,134,1.0,1.0,87,0.00,,,0.00,Wunderground v.1.15,2013-08-06 07:42:00,
2013-08-06 00:52:00,62.7,58.8,29.95,SSE,165,2.0,2.0,87,0.00,,,0.00,Wunderground v.1.15,2013-08-06 07:52:00,
2013-08-06 00:57:00,62.5,58.6,29.95,SE,136,1.0,2.0,87,0.00,,,0.00,Wunderground v.1.15,2013-08-06 07:57:00,
2013-08-06 01:07:00,62.4,58.8,29.95,SSE,167,1.0,3.0,88,0.00,,,0.00,Wunderground v.1.15,2013-08-06 08:07:00,
2013-08-06 01:12:00,62.3,59.0,29.95,SE,132,1.0,2.0,89,0.00,,,0.00,Wunderground v.1.15,2013-08-06 08:12:00,
2013-08-06 01:22:00,62.3,59.0,29.95,South,169,2.0,2.0,89,0.00,,,0.00,Wunderground v.1.15,2013-08-06 08:22:00,
2013-08-06 01:27:00,62.2,58.9,29.95,South,183,2.0,5.0,89,0.00,,,0.00,Wunderground v.1.15,2013-08-06 08:27:00,
2013-08-06 01:37:00,62.0,59.0,29.95,South,190,3.0,3.0,90,0.00,,,0.00,Wunderground v.1.15,2013-08-06 08:37:00,
2013-08-06 01:47:00,62.1,59.1,29.95,South,190,1.0,5.0,90,0.00,,,0.00,Wunderground v.1.15,2013-08-06 08:47:00,
2013-08-06 01:57:00,62.2,59.2,29.95,South,190,1.0,1.0,90,0.00,,,0.00,Wunderground v.1.15,2013-08-06 08:57:00,
2013-08-06 02:02:00,62.3,59.3,29.95,South,190,1.0,1.0,90,0.00,,,0.00,Wunderground v.1.15,2013-08-06 09:02:00,
2013-08-06 02:07:00,62.4,59.1,29.94,South,190,1.0,1.0,89,0.00,,,0.00,Wunderground v.1.15,2013-08-06 09:07:00,
2013-08-06 02:12:00,62.4,59.1,29.94,South,190,1.0,1.0,89,0.00,,,0.00,Wunderground v.1.15,2013-08-06 09:12:00,
2013-08-06 02:22:00,62.4,59.1,29.95,South,190,1.0,1.0,89,0.00,,,0.00,Wunderground v.1.15,2013-08-06 09:22:00,
2013-08-06 02:32:00,62.6,59.3,29.95,SW,235,2.0,2.0,89,0.00,,,0.00,Wunderground v.1.15,2013-08-06 09:32:00,
2013-08-06 02:42:00,62.7,59.1,29.95,SW,220,2.0,2.0,88,0.00,,,0.00,Wunderground v.1.15,2013-08-06 09:42:00,
2013-08-06 02:52:00,62.7,59.1,29.95,SSW,205,3.0,3.0,88,0.00,,,0.00,Wunderground v.1.15,2013-08-06 09:52:00,
2013-08-06 02:57:00,62.6,59.0,29.95,SSW,202,3.0,3.0,88,0.00,,,0.00,Wunderground v.1.15,2013-08-06 09:57:00,
2013-08-06 03:02:00,62.6,59.0,29.95,SSW,202,2.0,2.0,88,0.00,,,0.00,Wunderground v.1.15,2013-08-06 10:02:00,
2013-08-06 03:07:00,62.6,59.0,29.95,SSW,202,2.0,2.0,88,0.00,,,0.00,Wunderground v.1.15,2013-08-06 10:07:00,
2013-08-06 03:12:00,62.6,59.0,29.95,SSW,202,2.0,2.0,88,0.00,,,0.00,Wunderground v.1.15,2013-08-06 10:12:00,
2013-08-06 03:22:00,62.5,58.9,29.95,SSW,202,3.0,3.0,88,0.00,,,0.00,Wunderground v.1.15,2013-08-06 10:22:00,
2013-08-06 03:27:00,62.5,58.9,29.95,SSW,202,2.0,3.0,88,0.00,,,0.00,Wunderground v.1.15,2013-08-06 10:27:00,
2013-08-06 03:37:00,62.6,59.0,29.95,SSW,202,2.0,2.0,88,0.00,,,0.00,Wunderground v.1.15,2013-08-06 10:37:00,
2013-08-06 03:47:00,62.5,58.9,29.95,SSW,202,2.0,2.0,88,0.00,,,0.00,Wunderground v.1.15,2013-08-06 10:47:00,
2013-08-06 03:57:00,62.4,58.8,29.95,SSW,202,0.0,1.0,88,0.00,,,0.00,Wunderground v.1.15,2013-08-06 10:57:00,
2013-08-06 04:02:00,62.4,58.8,29.94,SSW,202,0.0,1.0,88,0.00,,,0.00,Wunderground v.1.15,2013-08-06 11:02:00,
2013-08-06 04:07:00,62.4,58.8,29.94,SSW,202,1.0,2.0,88,0.00,,,0.00,Wunderground v.1.15,2013-08-06 11:07:00,
2013-08-06 04:17:00,62.3,58.7,29.95,South,184,2.0,3.0,88,0.00,,,0.00,Wunderground v.1.15,2013-08-06 11:17:00,
2013-08-06 04:22:00,62.3,58.7,29.95,South,184,2.0,3.0,88,0.00,,,0.00,Wunderground v.1.15,2013-08-06 11:22:00,
2013-08-06 04:27:00,62.2,58.6,29.95,South,179,1.0,3.0,88,0.00,,,0.00,Wunderground v.1.15,2013-08-06 11:27:00,
2013-08-06 04:32:00,62.2,58.6,29.95,South,179,1.0,3.0,88,0.00,,,0.00,Wunderground v.1.15,2013-08-06 11:32:00,
2013-08-06 04:37:00,62.2,58.6,29.95,South,179,1.0,3.0,88,0.00,,,0.00,Wunderground v.1.15,2013-08-06 11:37:00,
2013-08-06 04:47:00,62.1,58.5,29.95,SW,226,1.0,2.0,88,0.00,,,0.00,Wunderground v.1.15,2013-08-06 11:47:00,
2013-08-06 04:52:00,62.0,58.4,29.95,SW,227,2.0,2.0,88,0.00,,,0.00,Wunderground v.1.15,2013-08-06 11:52:00,
2013-08-06 04:57:00,62.0,58.4,29.95,SW,227,1.0,2.0,88,0.00,,,0.00,Wunderground v.1.15,2013-08-06 11:57:00,
2013-08-06 05:07:00,61.9,58.3,29.95,South,177,2.0,2.0,88,0.00,,,0.00,Wunderground v.1.15,2013-08-06 12:07:00,
2013-08-06 05:17:00,61.8,58.2,29.96,South,191,1.0,2.0,88,0.00,,,0.00,Wunderground v.1.15,2013-08-06 12:17:00,
2013-08-06 05:27:00,61.8,58.2,29.96,South,191,1.0,1.0,88,0.00,,,0.00,Wunderground v.1.15,2013-08-06 12:27:00,
2013-08-06 05:37:00,61.7,58.1,29.96,South,191,0.0,1.0,88,0.00,,,0.00,Wunderground v.1.15,2013-08-06 12:37:00,
2013-08-06 05:47:00,61.9,58.3,29.96,South,191,1.0,1.0,88,0.00,,,0.00,Wunderground v.1.15,2013-08-06 12:47:00,
2013-08-06 05:57:00,61.9,58.3,29.97,SE,136,1.0,2.0,88,0.00,,,0.00,Wunderground v.1.15,2013-08-06 12:57:00,
2013-08-06 06:07:00,62.0,58.4,29.97,SE,136,1.0,2.0,88,0.00,,,0.00,Wunderground v.1.15,2013-08-06 13:07:00,
2013-08-06 06:12:00,62.0,58.4,29.97,SE,136,1.0,1.0,88,0.00,,,0.00,Wunderground v.1.15,2013-08-06 13:12:00,
2013-08-06 06:22:00,62.1,58.5,29.97,ENE,65,1.0,1.0,88,0.00,,,0.00,Wunderground v.1.15,2013-08-06 13:22:00,
2013-08-06 06:32:00,62.2,58.3,29.97,ENE,58,1.0,2.0,87,0.00,,,0.00,Wunderground v.1.15,2013-08-06 13:32:00,
2013-08-06 06:37:00,62.3,58.4,29.97,ENE,59,1.0,2.0,87,0.00,,,0.00,Wunderground v.1.15,2013-08-06 13:37:00,
2013-08-06 06:42:00,62.3,58.4,29.97,East,87,1.0,1.0,87,0.00,,,0.00,Wunderground v.1.15,2013-08-06 13:42:00,
2013-08-06 06:47:00,62.3,58.4,29.97,East,87,0.0,1.0,87,0.00,,,0.00,Wunderground v.1.15,2013-08-06 13:47:00,
2013-08-06 06:57:00,62.4,58.5,29.97,NE,36,2.0,3.0,87,0.00,,,0.00,Wunderground v.1.15,2013-08-06 13:57:00,
2013-08-06 07:07:00,62.5,58.6,29.97,NE,36,1.0,2.0,87,0.00,,,0.00,Wunderground v.1.15,2013-08-06 14:07:00,
2013-08-06 07:12:00,62.7,58.8,29.98,NE,36,1.0,1.0,87,0.00,,,0.00,Wunderground v.1.15,2013-08-06 14:12:00,
2013-08-06 07:17:00,62.7,58.5,29.98,ESE,123,1.0,2.0,86,0.00,,,0.00,Wunderground v.1.15,2013-08-06 14:17:00,
2013-08-06 07:22:00,62.8,58.5,29.98,NE,50,2.0,2.0,86,0.00,,,0.00,Wunderground v.1.15,2013-08-06 14:22:00,
2013-08-06 07:27:00,62.9,58.6,29.98,East,81,2.0,2.0,86,0.00,,,0.00,Wunderground v.1.15,2013-08-06 14:27:00,
2013-08-06 07:37:00,63.0,58.4,29.98,SE,138,1.0,1.0,85,0.00,,,0.00,Wunderground v.1.15,2013-08-06 14:37:00,
2013-08-06 07:42:00,63.1,58.5,29.98,SE,132,1.0,2.0,85,0.00,,,0.00,Wunderground v.1.15,2013-08-06 14:42:00,
2013-08-06 07:52:00,63.5,58.9,29.99,SE,141,1.0,1.0,85,0.00,,,0.00,Wunderground v.1.15,2013-08-06 14:52:00,
2013-08-06 07:57:00,63.9,59.0,29.99,SE,142,1.0,1.0,84,0.00,,,0.00,Wunderground v.1.15,2013-08-06 14:57:00,
2013-08-06 08:07:00,64.5,59.2,30.00,SE,142,1.0,1.0,83,0.00,,,0.00,Wunderground v.1.15,2013-08-06 15:07:00,
2013-08-06 08:17:00,64.7,59.1,30.00,SE,142,1.0,1.0,82,0.00,,,0.00,Wunderground v.1.15,2013-08-06 15:17:00,
2013-08-06 08:22:00,65.1,59.5,29.99,SW,214,1.0,3.0,82,0.00,,,0.00,Wunderground v.1.15,2013-08-06 15:22:00,
2013-08-06 08:27:00,65.4,59.4,30.00,SSW,197,1.0,3.0,81,0.00,,,0.00,Wunderground v.1.15,2013-08-06 15:27:00,
2013-08-06 08:37:00,66.6,59.9,30.00,ENE,69,1.0,3.0,79,0.00,,,0.00,Wunderground v.1.15,2013-08-06 15:37:00,
2013-08-06 08:47:00,66.8,59.7,30.00,SSW,200,1.0,3.0,78,0.00,,,0.00,Wunderground v.1.15,2013-08-06 15:47:00,
2013-08-06 08:52:00,67.0,59.9,30.00,SSW,202,1.0,1.0,78,0.00,,,0.00,Wunderground v.1.15,2013-08-06 15:52:00,
2013-08-06 09:02:00,67.8,60.0,30.00,NE,44,2.0,2.0,76,0.00,,,0.00,Wunderground v.1.15,2013-08-06 16:02:00,
2013-08-06 09:12:00,68.2,60.3,30.00,SSE,157,2.0,2.0,76,0.00,,,0.00,Wunderground v.1.15,2013-08-06 16:12:00,
2013-08-06 09:17:00,68.4,60.2,30.00,SSW,205,2.0,4.0,75,0.00,,,0.00,Wunderground v.1.15,2013-08-06 16:17:00,
2013-08-06 09:22:00,68.1,59.9,30.00,SSW,209,2.0,2.0,75,0.00,,,0.00,Wunderground v.1.15,2013-08-06 16:22:00,
2013-08-06 09:27:00,68.1,59.9,30.00,SW,223,2.0,2.0,75,0.00,,,0.00,Wunderground v.1.15,2013-08-06 16:27:00,
2013-08-06 09:37:00,69.4,60.4,30.01,SW,234,2.0,5.0,73,0.00,,,0.00,Wunderground v.1.15,2013-08-06 16:37:00,
2013-08-06 09:42:00,69.6,60.6,30.00,South,177,2.0,2.0,73,0.00,,,0.00,Wunderground v.1.15,2013-08-06 16:42:00,
2013-08-06 09:47:00,70.4,60.5,30.01,SE,134,2.0,2.0,71,0.00,,,0.00,Wunderground v.1.15,2013-08-06 16:47:00,
2013-08-06 09:57:00,71.1,60.8,30.01,SSE,148,2.0,4.0,70,0.00,,,0.00,Wunderground v.1.15,2013-08-06 16:57:00,
2013-08-06 10:07:00,71.0,60.3,30.01,SW,235,1.0,2.0,69,0.00,,,0.00,Wunderground v.1.15,2013-08-06 17:07:00,
2013-08-06 10:12:00,70.9,60.2,30.01,SSW,204,1.0,1.0,69,0.00,,,0.00,Wunderground v.1.15,2013-08-06 17:12:00,
2013-08-06 10:22:00,72.1,60.5,30.01,SSW,209,2.0,3.0,67,0.00,,,0.00,Wunderground v.1.15,2013-08-06 17:22:00,
2013-08-06 10:27:00,72.3,60.3,30.01,SW,223,3.0,5.0,66,0.00,,,0.00,Wunderground v.1.15,2013-08-06 17:27:00,
2013-08-06 10:32:00,71.9,59.9,30.01,SW,222,4.0,4.0,66,0.00,,,0.00,Wunderground v.1.15,2013-08-06 17:32:00,
2013-08-06 10:37:00,71.5,59.5,30.01,SW,232,4.0,5.0,66,0.00,,,0.00,Wunderground v.1.15,2013-08-06 17:37:00,
2013-08-06 10:47:00,71.5,59.5,30.01,South,180,4.0,5.0,66,0.00,,,0.00,Wunderground v.1.15,2013-08-06 17:47:00,
2013-08-06 10:52:00,71.7,59.7,30.01,SW,227,3.0,3.0,66,0.00,,,0.00,Wunderground v.1.15,2013-08-06 17:52:00,
2013-08-06 11:02:00,72.7,59.4,30.01,SW,214,2.0,4.0,63,0.00,,,0.00,Wunderground v.1.15,2013-08-06 18:02:00,
2013-08-06 11:12:00,72.7,59.4,30.00,South,169,2.0,2.0,63,0.00,,,0.00,Wunderground v.1.15,2013-08-06 18:12:00,
2013-08-06 11:17:00,73.7,59.4,30.00,SSW,208,2.0,3.0,61,0.00,,,0.00,Wunderground v.1.15,2013-08-06 18:17:00,
2013-08-06 11:27:00,74.5,58.8,30.00,South,181,3.0,5.0,58,0.00,,,0.00,Wunderground v.1.15,2013-08-06 18:27:00,
2013-08-06 11:37:00,74.9,59.6,30.00,SW,225,2.0,4.0,59,0.00,,,0.00,Wunderground v.1.15,2013-08-06 18:37:00,
2013-08-06 11:42:00,74.7,59.4,30.00,SW,232,4.0,4.0,59,0.00,,,0.00,Wunderground v.1.15,2013-08-06 18:42:00,
2013-08-06 11:52:00,74.9,60.1,29.99,WSW,240,3.0,3.0,60,0.00,,,0.00,Wunderground v.1.15,2013-08-06 18:52:00,
2013-08-06 11:57:00,75.5,59.7,29.99,SW,217,3.0,3.0,58,0.00,,,0.00,Wunderground v.1.15,2013-08-06 18:57:00,
2013-08-06 12:02:00,75.3,59.5,29.99,SSW,209,4.0,5.0,58,0.00,,,0.00,Wunderground v.1.15,2013-08-06 19:02:00,
2013-08-06 12:12:00,75.7,60.4,29.99,SW,218,4.0,6.0,59,0.00,,,0.00,Wunderground v.1.15,2013-08-06 19:12:00,
2013-08-06 12:17:00,75.8,59.5,29.99,SSW,212,5.0,6.0,57,0.00,,,0.00,Wunderground v.1.15,2013-08-06 19:17:00,
2013-08-06 12:22:00,75.5,59.7,29.99,SSW,207,5.0,5.0,58,0.00,,,0.00,Wunderground v.1.15,2013-08-06 19:22:00,
2013-08-06 12:27:00,76.0,59.2,29.99,NW,318,4.0,5.0,56,0.00,,,0.00,Wunderground v.1.15,2013-08-06 19:27:00,
2013-08-06 12:37:00,77.0,59.1,29.99,SE,129,2.0,3.0,54,0.00,,,0.00,Wunderground v.1.15,2013-08-06 19:37:00,
2013-08-06 12:42:00,77.5,60.1,29.98,SW,231,3.0,5.0,55,0.00,,,0.00,Wunderground v.1.15,2013-08-06 19:42:00,
2013-08-06 12:52:00,77.4,59.5,29.98,WSW,250,3.0,3.0,54,0.00,,,0.00,Wunderground v.1.15,2013-08-06 19:52:00,
2013-08-06 12:57:00,77.6,59.1,29.98,SSW,196,3.0,3.0,53,0.00,,,0.00,Wunderground v.1.15,2013-08-06 19:57:00,
2013-08-06 13:02:00,77.8,59.3,29.98,SW,223,3.0,3.0,53,0.00,,,0.00,Wunderground v.1.15,2013-08-06 20:02:00,
2013-08-06 13:12:00,78.5,59.4,29.98,SSE,165,3.0,3.0,52,0.00,,,0.00,Wunderground v.1.15,2013-08-06 20:12:00,
2013-08-06 13:22:00,78.5,58.9,29.98,SW,232,5.0,5.0,51,0.00,,,0.00,Wunderground v.1.15,2013-08-06 20:22:00,
2013-08-06 13:27:00,79.1,58.9,29.97,WSW,242,4.0,6.0,50,0.00,,,0.00,Wunderground v.1.15,2013-08-06 20:27:00,
2013-08-06 13:32:00,79.1,58.3,29.97,WNW,290,4.0,4.0,49,0.00,,,0.00,Wunderground v.1.15,2013-08-06 20:32:00,
2013-08-06 13:42:00,79.3,59.0,29.97,WSW,244,4.0,5.0,50,0.00,,,0.00,Wunderground v.1.15,2013-08-06 20:42:00,
2013-08-06 13:47:00,79.7,58.3,29.97,SW,235,4.0,5.0,48,0.00,,,0.00,Wunderground v.1.15,2013-08-06 20:47:00,
2013-08-06 13:52:00,80.2,58.7,29.97,SW,235,4.0,6.0,48,0.00,,,0.00,Wunderground v.1.15,2013-08-06 20:52:00,
2013-08-06 14:02:00,80.5,58.4,29.97,WNW,287,4.0,4.0,47,0.00,,,0.00,Wunderground v.1.15,2013-08-06 21:02:00,
2013-08-06 14:07:00,80.8,59.3,29.96,SSW,198,4.0,4.0,48,0.00,,,0.00,Wunderground v.1.15,2013-08-06 21:07:00,
2013-08-06 14:12:00,80.5,59.0,29.97,SSW,194,5.0,6.0,48,0.00,,,0.00,Wunderground v.1.15,2013-08-06 21:12:00,
2013-08-06 14:22:00,80.6,59.7,29.96,South,173,5.0,5.0,49,0.00,,,0.00,Wunderground v.1.15,2013-08-06 21:22:00,
2013-08-06 14:27:00,80.9,59.9,29.96,SSE,160,5.0,5.0,49,0.00,,,0.00,Wunderground v.1.15,2013-08-06 21:27:00,
2013-08-06 14:37:00,81.3,59.7,29.96,SSE,167,6.0,7.0,48,0.00,,,0.00,Wunderground v.1.15,2013-08-06 21:37:00,
2013-08-06 14:47:00,80.9,59.9,29.96,SSW,209,6.0,6.0,49,0.00,,,0.00,Wunderground v.1.15,2013-08-06 21:47:00,
2013-08-06 14:57:00,81.1,60.1,29.96,SW,236,6.0,8.0,49,0.00,,,0.00,Wunderground v.1.15,2013-08-06 21:57:00,
2013-08-06 15:02:00,80.7,60.3,29.96,SW,232,6.0,6.0,50,0.00,,,0.00,Wunderground v.1.15,2013-08-06 22:02:00,
2013-08-06 15:07:00,81.0,60.0,29.96,SW,235,6.0,10.0,49,0.00,,,0.00,Wunderground v.1.15,2013-08-06 22:07:00,
2013-08-06 15:17:00,80.5,60.7,29.96,SSW,202,6.0,7.0,51,0.00,,,0.00,Wunderground v.1.15,2013-08-06 22:17:00,
2013-08-06 15:22:00,80.8,60.4,29.96,SSW,211,5.0,5.0,50,0.00,,,0.00,Wunderground v.1.15,2013-08-06 22:22:00,
2013-08-06 15:27:00,81.0,60.6,29.96,SSW,202,5.0,5.0,50,0.00,,,0.00,Wunderground v.1.15,2013-08-06 22:27:00,
2013-08-06 15:37:00,81.1,60.7,29.95,SSW,213,5.0,7.0,50,0.00,,,0.00,Wunderground v.1.15,2013-08-06 22:37:00,
2013-08-06 15:42:00,81.6,60.6,29.95,South,185,5.0,9.0,49,0.00,,,0.00,Wunderground v.1.15,2013-08-06 22:42:00,
2013-08-06 15:52:00,81.7,60.1,29.95,SSW,211,5.0,5.0,48,0.00,,,0.00,Wunderground v.1.15,2013-08-06 22:52:00,
2013-08-06 15:57:00,82.1,59.9,29.95,SW,232,4.0,9.0,47,0.00,,,0.00,Wunderground v.1.15,2013-08-06 22:57:00,
2013-08-06 16:07:00,82.3,59.4,29.94,WNW,282,4.0,6.0,46,0.00,,,0.00,Wunderground v.1.15,2013-08-06 23:07:00,
2013-08-06 16:17:00,82.0,59.8,29.94,SSE,161,4.0,4.0,47,0.00,,,0.00,Wunderground v.1.15,2013-08-06 23:17:00,
2013-08-06 16:22:00,82.6,59.7,29.94,WNW,299,4.0,5.0,46,0.00,,,0.00,Wunderground v.1.15,2013-08-06 23:22:00,
2013-08-06 16:27:00,82.7,59.8,29.94,WSW,257,3.0,5.0,46,0.00,,,0.00,Wunderground v.1.15,2013-08-06 23:27:00,
2013-08-06 16:32:00,82.9,60.0,29.94,WSW,245,3.0,5.0,46,0.00,,,0.00,Wunderground v.1.15,2013-08-06 23:32:00,
2013-08-06 16:37:00,82.5,59.6,29.94,WSW,248,4.0,5.0,46,0.00,,,0.00,Wunderground v.1.15,2013-08-06 23:37:00,
2013-08-06 16:42:00,82.3,59.4,29.94,WSW,241,4.0,7.0,46,0.00,,,0.00,Wunderground v.1.15,2013-08-06 23:42:00,
2013-08-06 16:47:00,81.9,60.3,29.94,West,273,5.0,7.0,48,0.00,,,0.00,Wunderground v.1.15,2013-08-06 23:47:00,
2013-08-06 16:57:00,82.2,60.0,29.93,SW,232,4.0,5.0,47,0.00,,,0.00,Wunderground v.1.15,2013-08-06 23:57:00,
2013-08-06 17:07:00,81.2,59.6,29.93,SW,236,4.0,6.0,48,0.00,,,0.00,Wunderground v.1.15,2013-08-07 00:07:00,
2013-08-06 17:12:00,81.0,60.0,29.93,SSW,199,4.0,5.0,49,0.00,,,0.00,Wunderground v.1.15,2013-08-07 00:12:00,
2013-08-06 17:22:00,80.1,60.3,29.93,WSW,245,5.0,5.0,51,0.00,,,0.00,Wunderground v.1.15,2013-08-07 00:22:00,
2013-08-06 17:32:00,79.4,60.2,29.93,WSW,238,5.0,8.0,52,0.00,,,0.00,Wunderground v.1.15,2013-08-07 00:32:00,
2013-08-06 17:37:00,78.8,60.2,29.93,NW,310,5.0,8.0,53,0.00,,,0.00,Wunderground v.1.15,2013-08-07 00:37:00,
2013-08-06 17:47:00,78.2,60.2,29.94,SW,232,5.0,10.0,54,0.00,,,0.00,Wunderground v.1.15,2013-08-07 00:47:00,
2013-08-06 17:57:00,77.1,60.2,29.94,WSW,254,5.0,5.0,56,0.00,,,0.00,Wunderground v.1.15,2013-08-07 00:57:00,
2013-08-06 18:07:00,76.7,60.3,29.94,SW,217,4.0,4.0,57,0.00,,,0.00,Wunderground v.1.15,2013-08-07 01:07:00,
2013-08-06 18:12:00,76.4,60.0,29.94,WNW,288,4.0,4.0,57,0.00,,,0.00,Wunderground v.1.15,2013-08-07 01:12:00,
2013-08-06 18:17:00,76.2,60.3,29.94,West,277,4.0,4.0,58,0.00,,,0.00,Wunderground v.1.15,2013-08-07 01:17:00,
2013-08-06 18:22:00,75.2,59.9,29.94,West,271,4.0,4.0,59,0.00,,,0.00,Wunderground v.1.15,2013-08-07 01:22:00,
2013-08-06 18:27:00,75.1,60.3,29.94,WSW,251,5.0,5.0,60,0.00,,,0.00,Wunderground v.1.15,2013-08-07 01:27:00,
2013-08-06 18:37:00,74.8,60.4,29.94,West,263,4.0,5.0,61,0.00,,,0.00,Wunderground v.1.15,2013-08-07 01:37:00,
2013-08-06 18:47:00,74.5,60.6,29.94,West,265,3.0,3.0,62,0.00,,,0.00,Wunderground v.1.15,2013-08-07 01:47:00,
2013-08-06 18:52:00,74.5,60.6,29.94,WNW,283,3.0,3.0,62,0.00,,,0.00,Wunderground v.1.15,2013-08-07 01:52:00,
2013-08-06 19:02:00,73.6,60.7,29.94,West,259,4.0,6.0,64,0.00,,,0.00,Wunderground v.1.15,2013-08-07 02:02:00,
2013-08-06 19:07:00,73.1,60.6,29.94,WNW,283,4.0,6.0,65,0.00,,,0.00,Wunderground v.1.15,2013-08-07 02:07:00,
2013-08-06 19:17:00,72.2,60.2,29.95,WNW,282,4.0,4.0,66,0.00,,,0.00,Wunderground v.1.15,2013-08-07 02:17:00,
2013-08-06 19:22:00,71.6,60.1,29.94,WNW,290,4.0,4.0,67,0.00,,,0.00,Wunderground v.1.15,2013-08-07 02:22:00,
2013-08-06 19:27:00,71.2,60.1,29.94,WNW,292,3.0,5.0,68,0.00,,,0.00,Wunderground v.1.15,2013-08-07 02:27:00,
2013-08-06 19:32:00,71.0,60.3,29.94,WNW,290,3.0,3.0,69,0.00,,,0.00,Wunderground v.1.15,2013-08-07 02:32:00,
2013-08-06 19:42:00,70.1,59.9,29.94,West,263,3.0,4.0,70,0.00,,,0.00,Wunderground v.1.15,2013-08-07 02:42:00,
2013-08-06 19:52:00,69.4,59.6,29.95,NW,309,3.0,3.0,71,0.00,,,0.00,Wunderground v.1.15,2013-08-07 02:52:00,
2013-08-06 19:57:00,69.0,59.6,29.95,WNW,296,3.0,4.0,72,0.00,,,0.00,Wunderground v.1.15,2013-08-07 02:57:00,
2013-08-06 20:07:00,68.3,59.3,29.95,WNW,282,4.0,5.0,73,0.00,,,0.00,Wunderground v.1.15,2013-08-07 03:07:00,
2013-08-06 20:17:00,67.8,59.2,29.96,West,267,2.0,3.0,74,0.00,,,0.00,Wunderground v.1.15,2013-08-07 03:17:00,
2013-08-06 20:27:00,67.3,59.1,29.96,WNW,290,3.0,3.0,75,0.00,,,0.00,Wunderground v.1.15,2013-08-07 03:27:00,
2013-08-06 20:37:00,66.8,59.0,29.97,WNW,290,2.0,3.0,76,0.00,,,0.00,Wunderground v.1.15,2013-08-07 03:37:00,
2013-08-06 20:47:00,66.4,59.0,29.97,WNW,291,2.0,3.0,77,0.00,,,0.00,Wunderground v.1.15,2013-08-07 03:47:00,
2013-08-06 20:57:00,66.0,59.3,29.97,WNW,287,2.0,5.0,79,0.00,,,0.00,Wunderground v.1.15,2013-08-07 03:57:00,
2013-08-06 21:02:00,65.7,59.4,29.97,WNW,283,3.0,3.0,80,0.00,,,0.00,Wunderground v.1.15,2013-08-07 04:02:00,
2013-08-06 21:07:00,65.4,59.1,29.98,West,272,3.0,3.0,80,0.00,,,0.00,Wunderground v.1.15,2013-08-07 04:07:00,
2013-08-06 21:12:00,65.1,59.1,29.98,NNW,333,3.0,4.0,81,0.00,,,0.00,Wunderground v.1.15,2013-08-07 04:12:00,
2013-08-06 21:22:00,64.7,59.1,29.99,West,277,3.0,3.0,82,0.00,,,0.00,Wunderground v.1.15,2013-08-07 04:22:00,
2013-08-06 21:27:00,64.5,59.2,29.99,WNW,294,3.0,3.0,83,0.00,,,0.00,Wunderground v.1.15,2013-08-07 04:27:00,
2013-08-06 21:37:00,64.1,58.8,29.99,NNW,327,2.0,3.0,83,0.00,,,0.00,Wunderground v.1.15,2013-08-07 04:37:00,
2013-08-06 21:42:00,63.9,59.0,29.99,NW,323,2.0,2.0,84,0.00,,,0.00,Wunderground v.1.15,2013-08-07 04:42:00,
2013-08-06 21:52:00,63.7,58.8,29.99,WNW,286,2.0,2.0,84,0.00,,,0.00,Wunderground v.1.15,2013-08-07 04:52:00,
2013-08-06 22:02:00,63.6,58.7,29.99,West,273,2.0,2.0,84,0.00,,,0.00,Wunderground v.1.15,2013-08-07 05:02:00,
2013-08-06 22:12:00,63.5,58.9,29.99,West,273,1.0,1.0,85,0.00,,,0.00,Wunderground v.1.15,2013-08-07 05:12:00,
2013-08-06 22:17:00,63.4,58.8,29.99,West,273,1.0,1.0,85,0.00,,,0.00,Wunderground v.1.15,2013-08-07 05:17:00,
2013-08-06 22:22:00,63.3,58.7,29.98,West,273,1.0,1.0,85,0.00,,,0.00,Wunderground v.1.15,2013-08-07 05:22:00,
2013-08-06 22:32:00,63.4,59.1,29.99,WSW,238,1.0,1.0,86,0.00,,,0.00,Wunderground v.1.15,2013-08-07 05:32:00,
2013-08-06 22:37:00,63.4,59.1,29.99,WSW,238,1.0,1.0,86,0.00,,,0.00,Wunderground v.1.15,2013-08-07 05:37:00,
2013-08-06 22:42:00,63.5,58.9,29.99,WSW,238,1.0,1.0,85,0.00,,,0.00,Wunderground v.1.15,2013-08-07 05:42:00,
2013-08-06 22:52:00,63.6,59.0,29.99,WSW,238,1.0,1.0,85,0.00,,,0.00,Wunderground v.1.15,2013-08-07 05:52:00,
2013-08-06 22:57:00,63.5,58.9,29.99,WSW,238,1.0,3.0,85,0.00,,,0.00,Wunderground v.1.15,2013-08-07 05:57:00,
2013-08-06 23:07:00,63.6,59.0,30.00,WSW,238,2.0,4.0,85,0.00,,,0.00,Wunderground v.1.15,2013-08-07 06:07:00,
2013-08-06 23:12:00,63.5,58.9,30.00,West,275,2.0,2.0,85,0.00,,,0.00,Wunderground v.1.15,2013-08-07 06:12:00,
2013-08-06 23:17:00,63.3,58.7,30.00,West,279,2.0,3.0,85,0.00,,,0.00,Wunderground v.1.15,2013-08-07 06:17:00,
2013-08-06 23:22:00,63.2,58.9,30.00,SW,230,2.0,2.0,86,0.00,,,0.00,Wunderground v.1.15,2013-08-07 06:22:00,
2013-08-06 23:32:00,63.1,58.8,30.00,SW,230,1.0,3.0,86,0.00,,,0.00,Wunderground v.1.15,2013-08-07 06:32:00,
2013-08-06 23:42:00,62.9,58.6,30.00,WNW,300,2.0,3.0,86,0.00,,,0.00,Wunderground v.1.15,2013-08-07 06:42:00,
2013-08-06 23:47:00,62.8,58.9,30.00,SW,234,2.0,3.0,87,0.00,,,0.00,Wunderground v.1.15,2013-08-07 06:47:00,
2013-08-06 23:52:00,62.7,58.5,30.01,SW,221,2.0,2.0,86,0.00,,,0.00,Wunderground v.1.15,2013-08-07 06:52:00,